Redmond, OR

11:07 PM PDT on September 26, 2016 (GMT -0700)
Roberts Field Airport

Weather History for KRDM - November, 2013

Change the Weather History Date:

Saturday, November 2, 2013

  Actual Average Record
Temperature  
Mean Temperature 40 °F 42 °F  
Max Temperature 53 °F 55 °F 74 °F (1981)
Min Temperature 27 °F 29 °F 3 °F (2002)
Degree Days  
Heating Degree Days 25 23  
Month to date heating degree days 47 46  
Since 1 July heating degree days 976 991  
Cooling Degree Days 0 0  
Month to date cooling degree days 0 0  
Year to date cooling degree days 350 222  
Moisture  
Dew Point 32 °F    
Average Humidity 64    
Maximum Humidity 85    
Minimum Humidity 42    
Precipitation  
Precipitation 0.02 in 0.03 in 0.84 in (1984)
Month to date precipitation 0.02 0.06  
Year to date precipitation 4.25 6.84  
Sea Level Pressure  
Sea Level Pressure 29.92 in    
Wind  
Wind Speed 14 mph (WSW)    
Max Wind Speed 35 mph    
Max Gust Speed 46 mph    
Visibility 10 miles    
Events Rain    
T = Trace of Precipitation, MM = Missing Value Source: NWS Daily Summary

Daily Weather History Graph

Daily Weather History Graph

Search for Another Location

Airport or City:

Trip Planner

Search our weather history database for the weather conditions in past years. The results will help you decide how hot, cold, wet, or windy it might be!

Date:

Astronomy

Nov. 02, 2013 Rise Set
Actual Time 7:43 AM PDT 5:52 PM PDT
Civil Twilight 7:13 AM PDT 6:22 PM PDT
Nautical Twilight 6:38 AM PDT 6:56 PM PDT
Astronomical Twilight 6:04 AM PDT 7:30 PM PDT
Moon 6:45 AM PDT (11/2) 5:27 PM PDT (11/2)
Length of Visible Light 11h 09m
Length of Day
10h 09m
Waning Crescent, 1% of the Moon is Illuminated
Nov 2
Waning Crescent
Nov 3
New
Nov 9
First Quarter
Nov 17
Full
Nov 25
Last Quarter

Hourly Weather History & Observations

Time (PDT) Temp. Windchill Dew Point Humidity Pressure Visibility Wind Dir Wind Speed Gust Speed Precip Events Conditions
12:56 AM 48.9 °F - 37.9 °F 66% 29.90 in 10.0 mi South 13.8 mph - N/A   Scattered Clouds
1:56 AM 46.9 °F - 36.0 °F 66% 29.87 in 10.0 mi East 4.6 mph - N/A   Clear
2:56 AM 50.0 °F - 36.0 °F 59% 29.81 in 10.0 mi South 13.8 mph 17.3 mph N/A   Partly Cloudy
3:56 AM 52.0 °F - 35.1 °F 53% 29.75 in 10.0 mi SSW 17.3 mph 25.3 mph N/A   Clear
4:56 AM 51.1 °F - 35.1 °F 54% 29.76 in 10.0 mi South 17.3 mph 25.3 mph N/A   Mostly Cloudy
5:56 AM 51.1 °F - 37.0 °F 59% 29.75 in 10.0 mi South 18.4 mph 27.6 mph 0.00 in   Overcast
6:56 AM 48.9 °F - 39.0 °F 69% 29.78 in 10.0 mi South 9.2 mph - 0.00 in Rain Light Rain
7:56 AM 46.9 °F - 39.0 °F 74% 29.84 in 10.0 mi West 21.9 mph 33.4 mph 0.02 in Rain Light Rain
8:56 AM 46.9 °F - 32.0 °F 56% 29.85 in 10.0 mi WSW 21.9 mph 36.8 mph 0.00 in   Overcast
9:56 AM 48.0 °F - 35.1 °F 61% 29.88 in 10.0 mi WSW 12.7 mph 23.0 mph N/A   Partly Cloudy
10:56 AM 48.0 °F - 35.1 °F 61% 29.88 in 10.0 mi West 25.3 mph 33.4 mph N/A   Scattered Clouds
11:56 AM 48.9 °F - 33.1 °F 54% 29.91 in 10.0 mi WNW 25.3 mph 36.8 mph N/A   Partly Cloudy
12:56 PM 48.0 °F - 30.9 °F 52% 29.92 in 10.0 mi West 24.2 mph 36.8 mph N/A   Partly Cloudy
1:56 PM 48.9 °F - 27.0 °F 43% 29.94 in 10.0 mi West 16.1 mph 24.2 mph N/A   Clear
2:56 PM 46.0 °F 38.3 °F 28.0 °F 50% 29.95 in 10.0 mi West 20.7 mph 24.2 mph N/A   Clear
3:56 PM 42.1 °F 35.2 °F 30.0 °F 62% 29.97 in 10.0 mi West 12.7 mph 21.9 mph N/A   Clear
4:56 PM 39.9 °F 31.1 °F 27.0 °F 60% 30.00 in 10.0 mi NW 17.3 mph 27.6 mph N/A   Mostly Cloudy
5:56 PM 37.9 °F 30.5 °F 28.9 °F 70% 29.99 in 10.0 mi WNW 11.5 mph - N/A   Partly Cloudy
6:56 PM 37.0 °F 30.4 °F 28.9 °F 73% 30.02 in 10.0 mi West 9.2 mph - N/A   Clear
7:56 PM 37.0 °F 30.4 °F 28.9 °F 73% 30.04 in 10.0 mi West 9.2 mph - N/A   Scattered Clouds
8:56 PM 34.0 °F 26.6 °F 28.9 °F 82% 30.04 in 10.0 mi West 9.2 mph - N/A   Partly Cloudy
9:56 PM 34.0 °F 27.2 °F 28.0 °F 79% 30.05 in 10.0 mi WSW 8.1 mph - N/A   Clear
10:56 PM 30.0 °F - 26.1 °F 85% 30.06 in 10.0 mi Calm Calm - N/A   Clear
11:56 PM 28.9 °F 21.9 °F 25.0 °F 85% 30.05 in 10.0 mi South 6.9 mph - N/A   Clear